Ellsworth AFB, SD

1:33 PM MDT on June 25, 2017 (GMT -0600)
Ellsworth Air Force Base

Weather History for KRCA - September, 2013

Change the Weather History Date:

Friday, September 27, 2013

  Actual Average Record
Temperature  
Mean Temperature 44 °F -  
Max Temperature 48 °F 65 °F 86 °F (2001)
Min Temperature 41 °F 41 °F 30 °F (1999)
Degree Days  
Heating Degree Days 20    
Moisture  
Dew Point 38 °F    
Average Humidity 80    
Maximum Humidity 91    
Minimum Humidity 65    
Precipitation  
Precipitation 0.08 in - - ()
Sea Level Pressure  
Sea Level Pressure 29.91 in    
Wind  
Wind Speed 18 mph (NNW)    
Max Wind Speed 26 mph    
Max Gust Speed 32 mph    
Visibility 10 miles    
Events Rain    
Averages and records for this station are not official NWS values.
T = Trace of Precipitation, MM = Missing Value Source: NWS Daily Summary

Daily Weather History Graph

Daily Weather History Graph

Search for Another Location

Airport or City:

Trip Planner

Search our weather history database for the weather conditions in past years. The results will help you decide how hot, cold, wet, or windy it might be!

Date:

Astronomy

Sep. 27, 2013 Rise Set
Actual Time 6:45 AM MDT 6:39 PM MDT
Civil Twilight 6:16 AM MDT 7:08 PM MDT
Nautical Twilight 5:43 AM MDT 7:42 PM MDT
Astronomical Twilight 5:08 AM MDT 8:16 PM MDT
Moon No Moon Rise 2:31 PM MDT (9/27)
Length of Visible Light 12h 51m
Length of Day
11h 54m
Last Quarter, 44% of the Moon is Illuminated
Sep 27
Last Quarter
Oct 4
New
Oct 11
First Quarter
Oct 18
Full
Oct 26
Last Quarter

Hourly Weather History & Observations

Time (MDT) Temp. Windchill Dew Point Humidity Pressure Visibility Wind Dir Wind Speed Gust Speed Precip Events Conditions
12:58 AM 48.7 °F - 37.4 °F 65% 29.86 in 10.0 mi North 18.4 mph 28.8 mph N/A   Overcast
1:50 AM 48.2 °F - 37.4 °F 66% 29.87 in 10.0 mi North 20.7 mph 28.8 mph N/A Rain Light Rain
1:58 AM 47.5 °F - 38.7 °F 71% 29.86 in 10.0 mi North 18.4 mph - 0.00 in Rain Light Rain
2:23 AM 46.4 °F 39.5 °F 39.2 °F 76% 29.87 in 10.0 mi North 17.3 mph - N/A   Overcast
2:58 AM 45.9 °F 39.4 °F 38.7 °F 76% 29.88 in 10.0 mi North 15.0 mph - 0.00 in   Overcast
3:58 AM 45.9 °F 38.8 °F 38.8 °F 76% 29.88 in 10.0 mi NNW 17.3 mph - N/A   Overcast
4:13 AM 44.6 °F 36.9 °F 39.2 °F 81% 29.89 in 10.0 mi NNW 18.4 mph - N/A   Overcast
4:18 AM 44.6 °F 35.9 °F 39.2 °F 81% 29.88 in 10.0 mi NNW 23.0 mph 27.6 mph N/A   Overcast
4:56 AM 44.6 °F 35.9 °F 39.2 °F 81% 29.87 in 10.0 mi NNW 23.0 mph 32.2 mph N/A   Overcast
4:58 AM 44.6 °F 35.3 °F 39.2 °F 81% 29.88 in 10.0 mi NNW 26.5 mph 32.2 mph N/A   Overcast
5:12 AM 42.8 °F 32.9 °F 39.2 °F 87% 29.86 in 10.0 mi NNW 26.5 mph 29.9 mph N/A   Overcast
5:58 AM 43.3 °F 34.7 °F 38.5 °F 83% 29.89 in 10.0 mi North 20.7 mph - 0.00 in   Overcast
6:08 AM 42.8 °F 33.1 °F 37.4 °F 81% 29.88 in 10.0 mi NNW 25.3 mph 32.2 mph N/A   Overcast
6:18 AM 42.8 °F 33.5 °F 37.4 °F 81% 29.87 in 10.0 mi NNW 23.0 mph 32.2 mph N/A   Overcast
6:58 AM 43.5 °F 36.1 °F 38.3 °F 82% 29.89 in 10.0 mi NNW 16.1 mph 23.0 mph N/A   Overcast
7:58 AM 43.3 °F 35.8 °F 38.5 °F 83% 29.88 in 10.0 mi NNW 16.1 mph - N/A   Overcast
8:58 AM 44.1 °F 36.2 °F 38.3 °F 80% 29.89 in 10.0 mi NNW 18.4 mph - N/A   Overcast
9:03 AM 44.6 °F 36.4 °F 39.2 °F 81% 29.88 in 10.0 mi NW 20.7 mph 25.3 mph N/A   Overcast
9:08 AM 44.6 °F 36.9 °F 39.2 °F 81% 29.89 in 10.0 mi NNW 18.4 mph 25.3 mph N/A   Overcast
9:23 AM 44.6 °F 37.2 °F 39.2 °F 81% 29.88 in 10.0 mi NNW 17.3 mph - N/A   Overcast
9:58 AM 45.0 °F 37.1 °F 38.3 °F 77% 29.91 in 10.0 mi NNW 19.6 mph - N/A   Overcast
10:43 AM 46.4 °F 39.2 °F 37.4 °F 71% 29.90 in 10.0 mi NNW 18.4 mph - N/A   Overcast
10:48 AM 46.4 °F 39.2 °F 37.4 °F 71% 29.90 in 10.0 mi NNW 18.4 mph - N/A   Overcast
10:58 AM 45.9 °F 38.8 °F 37.2 °F 72% 29.92 in 10.0 mi NNW 17.3 mph 24.2 mph N/A   Overcast
11:58 AM 46.8 °F - 37.6 °F 70% 29.92 in 10.0 mi NNW 18.4 mph 26.5 mph N/A   Overcast
12:58 PM 45.5 °F 38.3 °F 37.8 °F 74% 29.90 in 10.0 mi NNW 17.3 mph - N/A   Overcast
1:58 PM 47.1 °F - 36.3 °F 66% 29.89 in 10.0 mi NNW 15.0 mph - N/A   Overcast
2:22 PM 46.4 °F 40.1 °F 37.4 °F 71% 29.88 in 10.0 mi NNW 15.0 mph - N/A Rain Light Rain
2:40 PM 46.4 °F 40.1 °F 37.4 °F 71% 29.88 in 10.0 mi NNW 15.0 mph - N/A   Overcast
2:58 PM 46.8 °F - 37.2 °F 69% 29.92 in 10.0 mi NNW 16.1 mph - 0.00 in   Overcast
3:17 PM 46.4 °F 39.8 °F 37.4 °F 71% 29.89 in 10.0 mi NNW 16.1 mph - N/A Rain Light Rain
3:58 PM 45.1 °F 37.9 °F 39.2 °F 80% 29.93 in 10.0 mi NNW 17.3 mph - 0.00 in Rain Light Rain
4:50 PM 42.8 °F 35.8 °F 39.2 °F 87% 29.90 in 10.0 mi NNW 13.8 mph - N/A   Overcast
4:58 PM 42.4 °F 35.3 °F 39.7 °F 90% 29.95 in 10.0 mi NW 13.8 mph - 0.01 in   Overcast
5:18 PM 42.8 °F 36.2 °F 39.2 °F 87% 29.93 in 10.0 mi NNW 12.7 mph - N/A   Light Drizzle
5:58 PM 42.4 °F 36.5 °F 39.9 °F 91% 29.97 in 10.0 mi NNW 10.4 mph - 0.04 in Rain Light Rain
6:58 PM 41.9 °F 35.9 °F 38.8 °F 89% 29.99 in 10.0 mi NW 10.4 mph - 0.03 in Rain Light Rain
7:24 PM 42.8 °F 37.0 °F 39.2 °F 87% 29.92 in 10.0 mi North 10.4 mph - N/A   Mostly Cloudy
7:29 PM 42.8 °F 37.5 °F 39.2 °F 87% 29.94 in 10.0 mi NNW 9.2 mph - N/A   Mostly Cloudy
7:39 PM 42.8 °F 38.6 °F 39.2 °F 87% 29.95 in 10.0 mi NNW 6.9 mph - N/A   Overcast
7:58 PM 42.1 °F 37.1 °F 39.4 °F 90% 30.00 in 10.0 mi NNW 8.1 mph - 0.00 in   Overcast
8:58 PM 41.7 °F 36.1 °F 38.8 °F 89% 29.97 in 10.0 mi NNW 9.2 mph - N/A   Overcast
9:58 PM 42.1 °F 36.6 °F 39.0 °F 89% 29.95 in 10.0 mi North 9.2 mph - N/A   Overcast
10:58 PM 41.7 °F 37.3 °F 38.1 °F 87% 29.97 in 10.0 mi NNW 6.9 mph - N/A   Overcast
11:58 PM 41.0 °F 38.0 °F 37.8 °F 88% 29.95 in 10.0 mi WNW 4.6 mph - N/A   Overcast